• En España
  • Lista de países
  • Para 7 días
  • Temperatura del agua
  • Mapa Satelital
  • El tiempo en el mapa
  • Informadores
  • user-avatar
    Iniciar sesión

    Tiempo cada hora Piotrkowko

    Hoy, 20 Septiembre, Jueves

    Tiempo Temperatura Precipitaciones Viento Presión Humedad
    00:00 +20°C° 0 mm 2 mps 754 mmHg 64%
    01:00 +20°C° 0 mm 2 mps 754 mmHg 67%
    02:00 +19°C° 0 mm 2 mps 754 mmHg 68%
    03:00 +19°C° 0 mm 2 mps 754 mmHg 70%
    04:00 +19°C° 0 mm 3 mps 754 mmHg 71%
    05:00 +19°C° 0 mm 2 mps 754 mmHg 71%
    06:00 +20°C° 0 mm 2 mps 754 mmHg 71%
    07:00 +20°C° 0 mm 2 mps 754 mmHg 70%
    08:00 +22°C° 0 mm 3 mps 754 mmHg 65%
    09:00 +25°C° 0 mm 3 mps 754 mmHg 59%
    10:00 +27°C° 0 mm 3 mps 754 mmHg 53%
    11:00 +28°C° 0 mm 3 mps 754 mmHg 50%
    12:00 +29°C° 0 mm 4 mps 754 mmHg 48%
    13:00 +30°C° 0 mm 4 mps 754 mmHg 45%
    14:00 +29°C° 0 mm 4 mps 754 mmHg 46%
    15:00 +29°C° 0 mm 4 mps 753 mmHg 47%
    16:00 +29°C° 0 mm 4 mps 753 mmHg 48%
    17:00 +27°C° 0 mm 3 mps 753 mmHg 53%
    18:00 +25°C° 0 mm 2 mps 753 mmHg 59%
    19:00 +24°C° 0 mm 1 mps 753 mmHg 64%
    20:00 +23°C° 0 mm 2 mps 753 mmHg 65%
    21:00 +23°C° 0 mm 2 mps 752 mmHg 67%
    22:00 +21°C° 0 mm 2 mps 752 mmHg 68%
    23:00 +21°C° 0 mm 2 mps 752 mmHg 68%

    Mañana, 21 Septiembre, Viernes

    Tiempo Temperatura Precipitaciones Viento Presión Humedad
    00:00 +21°C° 0 mm 3 mps 752 mmHg 68%
    01:00 +20°C° 0 mm 3 mps 752 mmHg 69%
    02:00 +20°C° 0 mm 3 mps 751 mmHg 69%
    03:00 +20°C° 0 mm 3 mps 751 mmHg 68%
    04:00 +20°C° 0 mm 3 mps 751 mmHg 68%
    05:00 +20°C° 0 mm 4 mps 750 mmHg 67%
    06:00 +20°C° 0 mm 4 mps 750 mmHg 66%
    07:00 +21°C° 0 mm 4 mps 750 mmHg 64%
    08:00 +22°C° 0 mm 5 mps 750 mmHg 59%
    09:00 +24°C° 0 mm 6 mps 749 mmHg 53%
    10:00 +27°C° 0 mm 6 mps 749 mmHg 48%
    11:00 +28°C° 0 mm 7 mps 748 mmHg 45%
    12:00 +29°C° 0 mm 7 mps 748 mmHg 43%
    13:00 +30°C° 0 mm 7 mps 747 mmHg 40%
    14:00 +29°C° 0 mm 7 mps 746 mmHg 40%
    15:00 +29°C° 0 mm 7 mps 745 mmHg 41%
    16:00 +29°C° 0 mm 7 mps 744 mmHg 41%
    17:00 +27°C° 0 mm 7 mps 745 mmHg 45%
    18:00 +26°C° 0 mm 7 mps 745 mmHg 49%
    19:00 +24°C° 0 mm 7 mps 745 mmHg 52%
    20:00 +21°C° 0.7 mm 7 mps 746 mmHg 61%
    21:00 +17°C° 0.7 mm 7 mps 747 mmHg 69%
    22:00 +14°C° 0.7 mm 7 mps 748 mmHg 77%
    23:00 +14°C° 0.2 mm 6 mps 748 mmHg 75%

    Pasado mañana, 22 Septiembre, Sábado

    Tiempo Temperatura Precipitaciones Viento Presión Humedad
    00:00 +13°C° 0.2 mm 5 mps 749 mmHg 73%
    01:00 +13°C° 0.2 mm 5 mps 750 mmHg 71%
    02:00 +12°C° 0 mm 5 mps 750 mmHg 70%
    03:00 +10°C° 0 mm 5 mps 751 mmHg 69%
    04:00 +10°C° 0 mm 5 mps 751 mmHg 68%
    05:00 +10°C° 0 mm 6 mps 751 mmHg 66%
    06:00 +10°C° 0 mm 6 mps 751 mmHg 64%
    07:00 +11°C° 0 mm 7 mps 752 mmHg 63%
    08:00 +11°C° 0 mm 7 mps 752 mmHg 60%
    09:00 +12°C° 0 mm 7 mps 752 mmHg 57%
    10:00 +14°C° 0 mm 7 mps 753 mmHg 54%
    11:00 +15°C° 0 mm 7 mps 753 mmHg 51%
    12:00 +16°C° 0 mm 6 mps 753 mmHg 48%
    13:00 +17°C° 0 mm 6 mps 753 mmHg 45%
    14:00 +16°C° 0.1 mm 6 mps 753 mmHg 46%
    15:00 +16°C° 0.1 mm 6 mps 753 mmHg 46%
    16:00 +16°C° 0.1 mm 6 mps 753 mmHg 47%
    17:00 +15°C° 0.1 mm 5 mps 753 mmHg 53%
    18:00 +14°C° 0.1 mm 4 mps 753 mmHg 58%
    19:00 +12°C° 0.1 mm 4 mps 753 mmHg 64%
    20:00 +12°C° 0 mm 4 mps 753 mmHg 65%
    21:00 +12°C° 0 mm 4 mps 753 mmHg 66%
    22:00 +11°C° 0 mm 4 mps 753 mmHg 68%
    23:00 +11°C° 0 mm 4 mps 753 mmHg 68%

    23 Septiembre, Domingo

    Tiempo Temperatura Precipitaciones Viento Presión Humedad
    00:00 +11°C° 0 mm 4 mps 753 mmHg 68%
    01:00 +10°C° 0 mm 4 mps 753 mmHg 68%
    02:00 +10°C° 0 mm 4 mps 753 mmHg 69%
    03:00 +10°C° 0 mm 4 mps 753 mmHg 70%
    04:00 +8°C° 0 mm 4 mps 753 mmHg 71%
    05:00 +10°C° 0 mm 4 mps 753 mmHg 70%
    06:00 +10°C° 0 mm 4 mps 753 mmHg 69%
    07:00 +9°C° 0 mm 5 mps 752 mmHg 68%
    08:00 +10°C° 0 mm 5 mps 752 mmHg 64%
    09:00 +13°C° 0 mm 5 mps 752 mmHg 60%
    10:00 +14°C° 0 mm 5 mps 752 mmHg 56%
    11:00 +14°C° 0 mm 5 mps 751 mmHg 57%
    12:00 +14°C° 0 mm 4 mps 750 mmHg 58%
    13:00 +14°C° 0 mm 4 mps 749 mmHg 58%
    14:00 +13°C° 0.9 mm 4 mps 748 mmHg 66%
    15:00 +12°C° 0.9 mm 4 mps 747 mmHg 74%
    16:00 +11°C° 0.9 mm 3 mps 747 mmHg 82%
    17:00 +11°C° 1.8 mm 4 mps 745 mmHg 85%
    18:00 +11°C° 1.8 mm 4 mps 744 mmHg 88%
    19:00 +11°C° 1.8 mm 4 mps 742 mmHg 90%
    20:00 +10°C° 2.8 mm 5 mps 740 mmHg 91%
    21:00 +11°C° 2.8 mm 6 mps 738 mmHg 92%
    22:00 +12°C° 2.8 mm 7 mps 737 mmHg 93%
    23:00 +12°C° 2.7 mm 7 mps 736 mmHg 91%

    24 Septiembre, Lunes

    Tiempo Temperatura Precipitaciones Viento Presión Humedad
    00:00 +12°C° 2.7 mm 7 mps 735 mmHg 89%
    01:00 +12°C° 2.7 mm 7 mps 734 mmHg 87%
    02:00 +11°C° 1 mm 8 mps 735 mmHg 86%
    03:00 +9°C° 1 mm 10 mps 736 mmHg 85%
    04:00 +8°C° 1 mm 11 mps 737 mmHg 85%
    05:00 +8°C° 0.6 mm 11 mps 739 mmHg 83%
    06:00 +8°C° 0.6 mm 10 mps 741 mmHg 81%
    07:00 +8°C° 0.6 mm 9 mps 744 mmHg 79%
    08:00 +8°C° 0.2 mm 9 mps 745 mmHg 76%
    09:00 +10°C° 0.2 mm 9 mps 746 mmHg 73%
    10:00 +11°C° 0.2 mm 9 mps 747 mmHg 70%
    11:00 +11°C° 0.5 mm 9 mps 749 mmHg 68%
    12:00 +11°C° 0.5 mm 8 mps 750 mmHg 67%
    13:00 +11°C° 0.5 mm 8 mps 751 mmHg 65%
    14:00 +11°C° 0.1 mm 7 mps 752 mmHg 61%
    15:00 +11°C° 0.1 mm 7 mps 753 mmHg 57%
    16:00 +11°C° 0.1 mm 6 mps 754 mmHg 53%
    17:00 +10°C° 0 mm 5 mps 755 mmHg 56%
    18:00 +9°C° 0 mm 5 mps 755 mmHg 59%
    19:00 +8°C° 0 mm 4 mps 756 mmHg 62%
    20:00 +8°C° 0 mm 4 mps 756 mmHg 63%
    21:00 +8°C° 0 mm 5 mps 757 mmHg 64%
    22:00 +8°C° 0 mm 5 mps 757 mmHg 66%
    23:00 +7°C° 0 mm 5 mps 757 mmHg 68%

    25 Septiembre, Martes

    Tiempo Temperatura Precipitaciones Viento Presión Humedad
    00:00 +7°C° 0 mm 5 mps 757 mmHg 70%
    01:00 +7°C° 0 mm 5 mps 757 mmHg 72%
    02:00 +7°C° 0 mm 5 mps 758 mmHg 73%
    03:00 +7°C° 0 mm 5 mps 758 mmHg 73%
    04:00 +7°C° 0 mm 6 mps 758 mmHg 74%
    05:00 +7°C° 0 mm 6 mps 758 mmHg 75%
    06:00 +7°C° 0 mm 6 mps 758 mmHg 76%
    07:00 +7°C° 0 mm 6 mps 758 mmHg 77%
    08:00 +8°C° 0 mm 6 mps 758 mmHg 73%
    09:00 +9°C° 0 mm 6 mps 758 mmHg 70%
    10:00 +10°C° 0 mm 7 mps 758 mmHg 66%
    11:00 +10°C° 0.8 mm 7 mps 757 mmHg 70%
    12:00 +9°C° 0.8 mm 7 mps 757 mmHg 75%
    13:00 +9°C° 0.8 mm 7 mps 757 mmHg 79%
    14:00 +9°C° 0.3 mm 7 mps 757 mmHg 75%
    15:00 +10°C° 0.3 mm 6 mps 757 mmHg 72%
    16:00 +10°C° 0.3 mm 5 mps 757 mmHg 68%
    17:00 +9°C° 0 mm 5 mps 757 mmHg 72%
    18:00 +10°C° 0 mm 4 mps 758 mmHg 77%
    19:00 +8°C° 0 mm 4 mps 758 mmHg 81%
    20:00 +7°C° 0 mm 4 mps 759 mmHg 83%
    21:00 +7°C° 0 mm 4 mps 759 mmHg 85%
    22:00 +7°C° 0 mm 4 mps 760 mmHg 88%
    23:00 +8°C° 0 mm 3 mps 760 mmHg 89%
    Mostrar más